TimeCST,TemperatureF,Dew PointF,Humidity,Sea Level PressureIn,VisibilityMPH,Wind Direction,Wind SpeedMPH,Gust SpeedMPH,PrecipitationIn,Events,Conditions,WindDirDegrees,DateUTC
12:52 AM,39.0,30.0,70,30.05,10.0,NNW,10.4,-,N/A,,Clear,330,2014-02-16 06:52:00
1:52 AM,37.9,28.9,70,30.06,10.0,NW,8.1,-,N/A,,Clear,320,2014-02-16 07:52:00
2:52 AM,37.0,28.0,70,30.07,10.0,WNW,5.8,-,N/A,,Clear,290,2014-02-16 08:52:00
3:52 AM,30.9,26.1,82,30.06,10.0,WNW,3.5,-,N/A,,Clear,300,2014-02-16 09:52:00
4:52 AM,28.0,24.1,85,30.09,10.0,WNW,3.5,-,N/A,,Clear,290,2014-02-16 10:52:00
5:52 AM,30.9,25.0,79,30.11,10.0,NW,3.5,-,N/A,,Clear,310,2014-02-16 11:52:00
6:52 AM,30.0,26.1,85,30.11,10.0,North,3.5,-,N/A,,Clear,350,2014-02-16 12:52:00
7:52 AM,30.9,26.1,82,30.15,10.0,Calm,Calm,-,N/A,,Clear,0,2014-02-16 13:52:00
8:52 AM,37.0,30.0,76,30.16,10.0,NNE,4.6,-,N/A,,Clear,30,2014-02-16 14:52:00
9:52 AM,39.9,30.0,68,30.16,10.0,NNE,3.5,-,N/A,,Clear,30,2014-02-16 15:52:00
10:52 AM,44.1,30.9,60,30.16,10.0,NNE,5.8,-,N/A,,Clear,30,2014-02-16 16:52:00
11:52 AM,46.0,30.0,54,30.15,10.0,NNE,5.8,-,N/A,,Clear,30,2014-02-16 17:52:00
12:52 PM,46.9,30.0,52,30.12,10.0,NE,5.8,-,N/A,,Clear,40,2014-02-16 18:52:00
1:52 PM,48.0,28.9,48,30.09,10.0,ENE,6.9,-,N/A,,Clear,60,2014-02-16 19:52:00
2:52 PM,51.1,26.1,38,30.07,10.0,East,9.2,-,N/A,,Clear,90,2014-02-16 20:52:00
3:52 PM,53.1,26.1,35,30.06,10.0,SE,12.7,-,N/A,,Clear,130,2014-02-16 21:52:00
4:52 PM,53.1,28.0,38,30.05,10.0,East,8.1,-,N/A,,Mostly Cloudy,100,2014-02-16 22:52:00
5:52 PM,50.0,28.0,43,30.02,10.0,ESE,11.5,-,N/A,,Mostly Cloudy,120,2014-02-16 23:52:00
6:52 PM,48.0,28.0,46,30.02,10.0,SE,13.8,-,N/A,,Clear,130,2014-02-17 00:52:00
7:52 PM,46.9,28.0,48,30.01,10.0,SE,17.3,-,N/A,,Clear,130,2014-02-17 01:52:00
8:52 PM,46.0,28.9,51,29.99,10.0,SE,17.3,25.3,N/A,,Clear,140,2014-02-17 02:52:00
9:52 PM,45.0,30.9,58,29.98,10.0,SE,18.4,-,N/A,,Clear,140,2014-02-17 03:52:00
10:52 PM,44.1,28.9,55,29.97,10.0,SSE,20.7,28.8,N/A,,Clear,150,2014-02-17 04:52:00
11:52 PM,44.1,28.9,55,29.94,10.0,SSE,23.0,36.8,N/A,,Mostly Cloudy,150,2014-02-17 05:52:00